Lake Charles, LA

9:22 PM CDT on June 22, 2017 (GMT -0500)
Chennault International

Weather History for KCWF - March, 2014

Change the Weather History Date:

Thursday, March 27, 2014

  Actual Average Record
Temperature  
Mean Temperature 60 °F -  
Max Temperature 70 °F 70 °F 82 °F (2012)
Min Temperature 51 °F 56 °F 35 °F (2013)
Degree Days  
Heating Degree Days 5    
Growing Degree Days 10 (Base 50)    
Moisture  
Dew Point 57 °F    
Average Humidity 86    
Maximum Humidity 94    
Minimum Humidity 78    
Precipitation  
Precipitation 0.11 in - - ()
Sea Level Pressure  
Sea Level Pressure 29.97 in    
Wind  
Wind Speed 11 mph (SE)    
Max Wind Speed 24 mph    
Max Gust Speed 33 mph    
Visibility 7 miles    
Events Rain , Thunderstorm    
Averages and records for this station are not official NWS values.
T = Trace of Precipitation, MM = Missing Value Source: NWS Daily Summary

Daily Weather History Graph

Daily Weather History Graph

Search for Another Location

Airport or City:

Trip Planner

Search our weather history database for the weather conditions in past years. The results will help you decide how hot, cold, wet, or windy it might be!

Date:

Astronomy

Mar. 27, 2014 Rise Set
Actual Time 7:07 AM CDT 7:28 PM CDT
Civil Twilight 6:43 AM CDT 7:52 PM CDT
Nautical Twilight 6:15 AM CDT 8:20 PM CDT
Astronomical Twilight 5:47 AM CDT 8:48 PM CDT
Moon 4:45 AM CDT (3/27) 4:28 PM CDT (3/27)
Length of Visible Light 13h 08m
Length of Day
12h 20m
Waning Crescent, 13% of the Moon is Illuminated
Mar 27
Waning Crescent
Mar 30
New
Apr 7
First Quarter
Apr 15
Full
Apr 22
Last Quarter

Hourly Weather History & Observations

Time (CDT) Temp. Dew Point Humidity Pressure Visibility Wind Dir Wind Speed Gust Speed Precip Events Conditions
12:15 AM 51.4 °F 46.6 °F 83% 30.13 in 10.0 mi East 5.8 mph - N/A   Overcast
12:35 AM 51.4 °F 46.6 °F 83% 30.11 in 10.0 mi East 9.2 mph - N/A   Overcast
12:55 AM 51.6 °F 46.6 °F 83% 30.10 in 10.0 mi East 9.2 mph - N/A   Overcast
1:15 AM 52.0 °F 47.3 °F 84% 30.10 in 10.0 mi East 6.9 mph - N/A   Overcast
1:35 AM 52.7 °F 47.7 °F 83% 30.09 in 10.0 mi East 6.9 mph - N/A   Mostly Cloudy
1:55 AM 52.7 °F 48.0 °F 84% 30.09 in 10.0 mi East 6.9 mph - N/A   Scattered Clouds
2:15 AM 52.9 °F 48.2 °F 84% 30.07 in 10.0 mi East 6.9 mph - N/A   Mostly Cloudy
2:35 AM 52.9 °F 48.6 °F 85% 30.07 in 10.0 mi East 5.8 mph - N/A   Scattered Clouds
2:55 AM 53.6 °F 49.3 °F 85% 30.06 in 10.0 mi East 9.2 mph - N/A   Scattered Clouds
3:15 AM 54.1 °F 50.0 °F 86% 30.05 in 10.0 mi East 6.9 mph - N/A   Scattered Clouds
3:35 AM 54.5 °F 50.4 °F 86% 30.04 in 10.0 mi East 6.9 mph - N/A   Scattered Clouds
3:55 AM 54.5 °F 50.9 °F 88% 30.03 in 10.0 mi East 5.8 mph - N/A   Scattered Clouds
4:15 AM 54.7 °F 51.1 °F 88% 30.02 in 10.0 mi East 5.8 mph - N/A   Mostly Cloudy
6:00 AM 55.4 °F 51.8 °F 88% 30.00 in 10.0 mi ESE 8.1 mph - N/A   Scattered Clouds
6:50 AM 55.4 °F 51.8 °F 88% 30.00 in 10.0 mi ESE 8.1 mph - N/A   Scattered Clouds
7:58 AM 57.2 °F 55.4 °F 94% 30.00 in 10.0 mi ESE 8.1 mph - N/A   Mostly Cloudy
8:50 AM 60.8 °F 57.2 °F 88% 30.00 in 7.0 mi ESE 6.9 mph - N/A   Overcast
9:50 AM 62.6 °F 59.0 °F 88% 30.02 in 7.0 mi SE 9.2 mph - N/A   Overcast
10:50 AM 62.6 °F 59.0 °F 88% 30.02 in 7.0 mi SE 9.2 mph - N/A   Overcast
11:45 AM 66.2 °F 59.0 °F 78% 30.01 in 10.0 mi SE 15.0 mph 24.2 mph N/A   Mostly Cloudy
12:52 PM 68.0 °F 60.8 °F 78% 29.98 in 7.0 mi SSE 23.0 mph 29.9 mph N/A   Overcast
2:55 PM 69.8 °F 62.6 °F 78% 29.94 in 7.0 mi SSE 24.2 mph 28.8 mph N/A   Overcast
3:45 PM 69.8 °F 62.6 °F 78% 29.92 in 7.0 mi SSE 24.2 mph 29.9 mph N/A   Overcast
4:45 PM 69.8 °F 62.6 °F 78% 29.89 in 7.0 mi SSE 24.2 mph 33.4 mph N/A   Overcast
5:45 PM 69.8 °F 62.6 °F 78% 29.87 in 7.0 mi SSE 20.7 mph 28.8 mph N/A   Overcast
6:45 PM 69.8 °F 64.4 °F 83% 29.86 in 7.0 mi SSE 20.7 mph 28.8 mph N/A   Overcast
7:45 PM 68.0 °F 64.4 °F 88% 29.86 in 5.0 mi SSE 20.7 mph 31.1 mph N/A Rain Light Rain
8:45 PM 68.0 °F 64.4 °F 88% 29.88 in 5.0 mi SSE 18.4 mph 27.6 mph N/A Rain Light Rain
9:15 PM 67.6 °F 65.3 °F 92% 29.89 in 3.0 mi SSE 17.3 mph 28.8 mph 0.01 in Rain , Thunderstorm Rain
9:35 PM 67.5 °F 64.9 °F 92% 29.88 in 2.5 mi SSE 16.1 mph 23.0 mph 0.04 in Rain Rain
9:45 PM 68.0 °F 64.4 °F 88% 29.88 in 3.0 mi SSE 17.3 mph 23.0 mph N/A Rain , Thunderstorm Thunderstorms and Rain
9:55 PM 67.5 °F 65.3 °F 93% 29.88 in 2.5 mi SSE 20.7 mph 26.5 mph 0.08 in Rain , Thunderstorm Light Thunderstorms and Rain
10:15 PM 68.0 °F 65.7 °F 92% 29.89 in 3.0 mi South 16.1 mph 29.9 mph N/A Rain , Thunderstorm Light Thunderstorms and Rain
10:35 PM 68.0 °F 65.7 °F 92% 29.88 in 4.0 mi SSE 20.7 mph 28.8 mph 0.01 in Rain Light Rain
10:55 PM 68.4 °F 65.8 °F 92% 29.88 in 5.0 mi South 19.6 mph 26.5 mph 0.01 in   Overcast
11:15 PM 68.4 °F 65.7 °F 91% 29.88 in 5.0 mi SSE 19.6 mph 27.6 mph N/A   Overcast
11:35 PM 68.4 °F 65.8 °F 92% 29.87 in 4.0 mi SSE 20.7 mph 25.3 mph 0.02 in Rain Light Rain
11:55 PM 68.4 °F 65.8 °F 92% 29.87 in 3.0 mi South 19.6 mph 25.3 mph 0.02 in Rain Light Rain